[[{"header":{"parameterUnit":"m.s-1","parameterCategory":1,"la1":30.2991,"la2":30.254,"lo1":-89.0895,"lo2":-89.0444,"dy":0.0017,"dx":0.0017,"nx":28,"ny":28,"refTime":"2023-11-03T21:00:00:Z","depth":0,"parameterNumber":2,"parameterNumberName":"U-component_of_WINDS"},"data":[0,0,0,0,0,0,0,0,0,0,0,0,0,0,0,0,0,0,0,0,0,0,0,0,0,0,0,0,0,0,0,0,0,0,0,0,0,0,0,0,0,0,0,0,0,0,0,0,0,0,0,0,0,0,0,0,0,0,-3.5086,-3.5087,0,-3.5146,-3.5147,-3.5148,-3.5044,-3.5041,-3.5037,-3.5034,-3.5099,-3.5104,-3.5109,0,0,0,0,0,0,0,0,0,0,0,0,0,-3.4886,-3.489,-3.5086,-3.5087,-3.5088,-3.5146,-3.5147,-3.5148,-3.5045,-3.5041,-3.5037,-3.5033,-3.5097,-3.5103,-3.5109,0,0,0,0,0,0,0,0,0,0,0,0,0,-3.4962,-3.4891,-3.5086,-3.5043,-3.504,-3.5146,-3.5147,-3.5148,-3.5046,-3.5041,-3.5035,-3.5031,-3.5095,-3.5103,-3.511,-3.5261,0,0,-3.5133,-3.5136,0,0,0,0,0,0,0,0,-3.4958,-3.497,-3.5049,-3.5047,-3.5043,-3.5082,-3.51,-3.5186,-3.5047,-3.5044,-3.5034,-3.5028,-3.5098,-3.5105,-3.5128,-3.5264,-3.5267,-3.5133,-3.5138,-3.5141,-3.5143,0,0,0,0,0,0,0,-3.4953,-3.4967,-3.511,-3.505,-3.5047,-3.5022,-3.5027,-3.5116,-3.51,-3.5044,-3.5036,-3.5045,-3.5095,-3.5121,-3.5128,-3.5268,-3.5133,-3.514,-3.5145,-3.5147,-3.5534,-3.5539,0,0,0,0,0,0,-3.4952,-3.4963,-3.5108,-3.5112,-3.4987,-3.503,-3.5036,-3.5075,-3.5098,-3.5097,-3.5049,-3.504,-3.5111,-3.512,-3.513,-3.5311,-3.5141,-3.5148,-3.5152,-3.5528,-3.5535,-3.5541,0,0,0,0,0,0,-3.4948,-3.4966,-3.5106,-3.5035,-3.5051,-3.5039,-3.5084,-3.5079,-3.5104,-3.5102,-3.5099,-3.5078,-3.5107,-3.512,-3.523,-3.5311,-3.5152,-3.5158,-3.5521,-3.553,-3.5538,-3.5672,0,0,0,0,0,0,-3.4943,-3.4966,-3.5022,-3.5037,-3.5055,-3.5204,-3.5089,-3.5084,-3.5117,-3.5105,-3.5129,-3.5128,-3.5104,-3.5219,-3.5237,-3.5319,-3.5164,-3.5514,-3.5525,-3.5535,-3.566,-3.5684,-3.5704,0,0,0,0,0,-3.4936,-3.5058,-3.5026,-3.5044,-3.5126,-3.5208,-3.5219,-3.5188,-3.5124,-3.5182,-3.5181,-3.5127,-3.5299,-3.5231,-3.5251,-3.5336,-3.5508,-3.5522,-3.5534,-3.565,-3.5679,-3.5704,0,0,0,0,0,0,-3.5053,-3.5059,-3.5023,-3.5153,-3.5181,-3.5191,-3.5262,-3.5219,-3.5267,-3.5254,-3.5214,-3.5221,-3.5339,-3.5348,-3.5272,-3.5484,-3.5393,-3.5411,-3.5475,-3.5502,-3.5524,-3.5521,-3.517,0,0,0,0,0,-3.5094,-3.516,-3.5161,-3.5276,-3.5291,-3.5275,-3.531,-3.5283,-3.5311,-3.5323,-3.5329,-3.5359,-3.542,-3.5461,-3.5517,-3.566,-3.5665,-3.5728,-3.575,-3.5769,-3.5785,-3.5864,-3.5892,-3.5584,-3.5584,-3.5583,0,0,-3.5179,-3.519,-3.5235,-3.53,-3.5318,-3.5388,-3.5285,-3.5364,-3.5416,-3.5335,-3.5439,-3.5445,-3.5476,-3.5604,-3.566,-3.5615,-3.5871,-3.5785,-3.58,-3.5806,-3.588,-3.5909,-3.5935,-3.5592,-3.5591,-3.5589,0,0,-3.5371,-3.5385,-3.5483,-3.5504,-3.5533,-3.5521,-3.5544,-3.5561,-3.5562,-3.5665,-3.5606,-3.5668,-3.5773,-3.5798,-3.5825,-3.6027,-3.598,-3.6046,-3.6163,-3.6239,-3.6264,-3.6285,-3.636,-3.6386,-3.6061,-3.6062,-3.6062,0,-3.5474,-3.5576,-3.5539,-3.5622,-3.5653,-3.5581,-3.5681,-3.5703,-3.575,-3.5773,-3.5721,-3.5852,-3.5868,-3.6002,-3.6051,-3.6074,-3.6101,-3.6044,-3.6263,-3.6284,-3.6304,-3.6374,-3.6402,-3.607,-3.6069,-3.6068,-3.6067,0,-3.5702,-3.5775,-3.585,-3.5896,-3.5935,-3.6027,-3.6004,-3.6048,-3.6019,-3.6013,-3.6121,-3.6137,-3.6195,-3.6224,-3.6196,-3.6355,-3.6326,-3.6269,-3.6177,-3.6342,-3.6408,-3.6434,-3.6081,-3.6078,-3.6076,-3.6074,0,0,-3.5971,-3.5995,-3.6024,-3.6044,-3.6071,-3.6127,-3.6215,-3.6271,-3.6311,-3.6346,-3.642,-3.6511,-3.6459,-3.6489,-3.6463,-3.653,-3.6692,-3.6465,-3.6465,-3.6509,-3.687,-3.6915,-3.6946,-3.666,-3.6665,-3.6669,-3.6868,0,-3.6163,-3.6315,-3.6284,-3.6433,-3.65,-3.6433,-3.651,-3.6536,-3.6533,-3.659,-3.6586,-3.6652,-3.6577,-3.6595,-3.6659,-3.6659,-3.6764,-3.6643,-3.6731,-3.6735,-3.6728,-3.698,-3.7027,-3.7215,-3.6893,-3.6898,-3.6901,0,-3.6408,-3.6452,-3.6608,-3.6625,-3.6652,-3.6722,-3.6771,-3.6826,-3.6855,-3.6848,-3.6882,-3.6843,-3.6932,-3.6838,-3.6961,-3.688,-3.6913,-3.6919,-3.6925,-3.6934,-3.683,-3.6999,-3.7274,-3.7303,-3.694,-3.6937,-3.6934,0,-3.6592,-3.6689,-3.6795,-3.6814,-3.6836,-3.6888,-3.6899,-3.6922,-3.6958,-3.7002,-3.7026,-3.7079,-3.711,-3.7153,-3.7131,-3.7063,-3.7259,-3.7162,-3.7258,-3.7259,-3.7304,-3.7302,-3.7592,-3.7322,-3.7322,-3.7321,-3.7321,0,-3.6812,-3.691,-3.6878,-3.6944,-3.7053,-3.7016,-3.7125,-3.7129,-3.715,-3.7216,-3.7161,-3.7224,-3.719,-3.7251,-3.7234,-3.734,-3.7354,-3.7352,-3.7347,-3.7359,-3.736,-3.7382,-3.737,-3.7329,-3.7327,-3.7326,-3.7324,0,-3.7036,-3.7018,-3.713,-3.7141,-3.7146,-3.7227,-3.7237,-3.7299,-3.7291,-3.7376,-3.7393,-3.7382,-3.7452,-3.7433,-3.7508,-3.7497,-3.7632,-3.7609,-3.7623,-3.7618,-3.7716,-3.7708,-3.8032,-3.8074,-3.7775,-3.7778,-3.7781,0,-3.7179,-3.7253,-3.7272,-3.7312,-3.7328,-3.7393,-3.743,-3.7397,-3.7438,-3.7476,-3.7534,-3.7598,-3.7648,-3.7762,-3.7762,-3.782,-3.7799,-3.7909,-3.7808,-3.7818,-3.7804,-3.7801,-3.781,-3.793,-3.7933,-3.7936,-3.7938,0,-3.7435,-3.7422,-3.7477,-3.7529,-3.7574,-3.7614,-3.7648,-3.7685,-3.7654,-3.7703,-3.7773,-3.7812,-3.7889,-3.7954,-3.8007,-3.802,-3.7977,-3.797,-3.7996,-3.801,-3.8016,-3.8016,-3.7681,-3.7963,-3.7961,-3.7959,-3.7958,-3.7957,-3.7624,-3.7688,-3.7712,-3.7775,-3.7797,-3.7831,-3.789,-3.789,-3.7947,-3.8007,-3.7984,-3.8065,-3.8092,-3.8159,-3.8179,-3.8243,-3.8201,-3.8238,-3.8248,-3.8258,-3.8272,-3.8003,-3.8252,-3.8251,-3.825,-3.825,-3.8249,0,-3.788,-3.7892,-3.795,-3.8,-3.805,-3.8001,-3.8037,-3.8083,-3.8155,-3.8183,-3.8233,-3.8315,-3.8378,-3.8382,-3.8442,-3.8493,-3.8474,-3.851,-3.8507,-3.8512,-3.8304,-3.8277,-3.8524,-3.8524,-3.8524,-3.8524,-3.8524,-3.8524,-3.8019,-3.8124,-3.8115,-3.8231,-3.8242,-3.8321,-3.8346,-3.8378,-3.84,-3.8493,-3.8546,-3.8547,-3.8567,-3.8627,-3.8684,-3.8684,-3.871,-3.8754,-3.8747,-3.8553,-3.8526,-3.85,-3.8474,-3.8759,-3.876,-3.8949,-3.8951,-3.8952]},{"header":{"parameterUnit":"m.s-1","parameterCategory":1,"la1":30.2991,"la2":30.254,"lo1":-89.0895,"lo2":-89.0444,"dy":0.0017,"dx":0.0017,"nx":28,"ny":28,"refTime":"2023-11-03T21:00:00:Z","depth":0,"parameterNumber":3,"parameterNumberName":"V-component_of_WINDS"},"data":[0,0,0,0,0,0,0,0,0,0,0,0,0,0,0,0,0,0,0,0,0,0,0,0,0,0,0,0,0,0,0,0,0,0,0,0,0,0,0,0,0,0,0,0,0,0,0,0,0,0,0,0,0,0,0,0,0,0,-3.2208,-3.2208,0,-3.2208,-3.2208,-3.2208,-3.2152,-3.215,-3.2149,-3.2147,-3.2147,-3.2148,-3.215,0,0,0,0,0,0,0,0,0,0,0,0,0,-3.2159,-3.216,-3.2208,-3.2208,-3.2208,-3.2208,-3.2208,-3.2208,-3.2152,-3.215,-3.2148,-3.2147,-3.2146,-3.2148,-3.215,0,0,0,0,0,0,0,0,0,0,0,0,0,-3.2172,-3.216,-3.2208,-3.218,-3.2178,-3.2208,-3.2208,-3.2208,-3.2152,-3.215,-3.2148,-3.2146,-3.2146,-3.2148,-3.215,-3.2207,0,0,-3.2156,-3.2157,0,0,0,0,0,0,0,0,-3.2171,-3.2173,-3.2184,-3.2182,-3.2179,-3.2177,-3.219,-3.2207,-3.2153,-3.2162,-3.2147,-3.2145,-3.2159,-3.216,-3.2164,-3.2207,-3.2207,-3.2156,-3.2158,-3.2158,-3.2159,0,0,0,0,0,0,0,-3.217,-3.2173,-3.2208,-3.2184,-3.2181,-3.2167,-3.2166,-3.2193,-3.2173,-3.2161,-3.2157,-3.2158,-3.2157,-3.2163,-3.2164,-3.2207,-3.2156,-3.2158,-3.2159,-3.216,-3.2294,-3.2297,0,0,0,0,0,0,-3.2173,-3.2173,-3.2208,-3.2208,-3.217,-3.217,-3.2169,-3.218,-3.2172,-3.2169,-3.2159,-3.2155,-3.216,-3.2162,-3.2164,-3.2229,-3.2158,-3.216,-3.2161,-3.2292,-3.2295,-3.2297,0,0,0,0,0,0,-3.2172,-3.2177,-3.2208,-3.2189,-3.2192,-3.2173,-3.2186,-3.2181,-3.2187,-3.2171,-3.2167,-3.2169,-3.2159,-3.2161,-3.2196,-3.2228,-3.2161,-3.2163,-3.2289,-3.2293,-3.2296,-3.2361,0,0,0,0,0,0,-3.2171,-3.2177,-3.2199,-3.219,-3.2193,-3.2241,-3.2188,-3.2183,-3.2191,-3.2185,-3.2179,-3.2176,-3.2157,-3.2193,-3.2198,-3.223,-3.2165,-3.2286,-3.2291,-3.2295,-3.2356,-3.2366,-3.2375,0,0,0,0,0,-3.217,-3.2217,-3.22,-3.2205,-3.222,-3.2243,-3.2245,-3.2222,-3.2194,-3.2215,-3.2205,-3.2176,-3.2224,-3.2198,-3.2202,-3.2235,-3.2284,-3.229,-3.2295,-3.2352,-3.2364,-3.2375,0,0,0,0,0,0,-3.2231,-3.2216,-3.2197,-3.2243,-3.2245,-3.2233,-3.226,-3.2236,-3.2246,-3.224,-3.2211,-3.221,-3.225,-3.2246,-3.2217,-3.2289,-3.2249,-3.2255,-3.2291,-3.2303,-3.2312,-3.2312,-3.2166,0,0,0,0,0,-3.2249,-3.2269,-3.2255,-3.2297,-3.2299,-3.228,-3.2289,-3.2271,-3.2271,-3.2272,-3.2264,-3.2265,-3.228,-3.2291,-3.2304,-3.2355,-3.2352,-3.238,-3.2389,-3.2397,-3.2403,-3.2429,-3.2441,-3.2315,-3.2315,-3.2314,0,0,-3.2289,-3.2283,-3.2297,-3.2309,-3.2309,-3.2329,-3.2281,-3.2305,-3.232,-3.2275,-3.2308,-3.2302,-3.2302,-3.2345,-3.2363,-3.2343,-3.2438,-3.2404,-3.2411,-3.2412,-3.2436,-3.2448,-3.2458,-3.2318,-3.2318,-3.2317,0,0,-3.2371,-3.2369,-3.2403,-3.2403,-3.2402,-3.2388,-3.2397,-3.2389,-3.2383,-3.2415,-3.2382,-3.2399,-3.2426,-3.2427,-3.2431,-3.2512,-3.2486,-3.2517,-3.2568,-3.2593,-3.2603,-3.2612,-3.264,-3.2651,-3.2523,-3.2523,-3.2523,0,-3.242,-3.245,-3.2424,-3.245,-3.2456,-3.2416,-3.245,-3.2451,-3.2455,-3.246,-3.2437,-3.2469,-3.2466,-3.2508,-3.2528,-3.2532,-3.2541,-3.2518,-3.2604,-3.2612,-3.262,-3.2646,-3.2657,-3.2527,-3.2527,-3.2526,-3.2526,0,-3.2509,-3.2531,-3.2559,-3.2563,-3.2572,-3.2602,-3.258,-3.2592,-3.2573,-3.2562,-3.2595,-3.2589,-3.2601,-3.2609,-3.2591,-3.2649,-3.2636,-3.2609,-3.2567,-3.2636,-3.2661,-3.2671,-3.2532,-3.2531,-3.253,-3.2529,0,0,-3.2631,-3.2619,-3.263,-3.2631,-3.2626,-3.2642,-3.267,-3.268,-3.2691,-3.2694,-3.2717,-3.274,-3.2714,-3.2719,-3.27,-3.2723,-3.2786,-3.2692,-3.2692,-3.271,-3.2849,-3.287,-3.2882,-3.2769,-3.2771,-3.2772,-3.2849,0,-3.271,-3.2757,-3.2734,-3.2784,-3.2803,-3.2764,-3.2788,-3.2788,-3.2778,-3.2792,-3.2781,-3.2798,-3.2763,-3.2765,-3.2785,-3.2774,-3.2814,-3.2768,-3.2789,-3.279,-3.2791,-3.2895,-3.2917,-3.299,-3.2858,-3.286,-3.2861,0,-3.2809,-3.2816,-3.2868,-3.2859,-3.2866,-3.2888,-3.2895,-3.2909,-3.2907,-3.2898,-3.2903,-3.2879,-3.2905,-3.2864,-3.2899,-3.2869,-3.2876,-3.2872,-3.2874,-3.2875,-3.283,-3.2899,-3.3012,-3.3023,-3.2876,-3.2875,-3.2874,0,-3.2893,-3.2915,-3.2948,-3.295,-3.294,-3.2957,-3.2953,-3.2949,-3.2957,-3.2963,-3.2967,-3.2976,-3.2982,-3.2989,-3.2968,-3.294,-3.3006,-3.2964,-3.2999,-3.3,-3.3015,-3.3015,-3.3132,-3.302,-3.302,-3.302,-3.3019,0,-3.2984,-3.3017,-3.2985,-3.3006,-3.3041,-3.3014,-3.305,-3.3042,-3.3039,-3.3057,-3.3024,-3.3042,-3.3013,-3.3028,-3.3011,-3.3043,-3.3045,-3.3039,-3.3034,-3.3042,-3.3043,-3.3046,-3.3041,-3.3022,-3.3022,-3.3021,-3.3021,0,-3.3083,-3.3063,-3.3097,-3.3084,-3.3082,-3.3109,-3.3098,-3.3116,-3.3103,-3.3126,-3.313,-3.311,-3.3126,-3.3105,-3.3119,-3.3108,-3.3151,-3.3139,-3.3152,-3.3148,-3.3185,-3.3182,-3.3308,-3.3323,-3.3202,-3.3203,-3.3204,0,-3.3142,-3.3167,-3.3156,-3.3166,-3.3164,-3.318,-3.3187,-3.3161,-3.3169,-3.3168,-3.3187,-3.32,-3.3208,-3.3235,-3.3222,-3.3232,-3.3219,-3.3263,-3.3221,-3.3228,-3.322,-3.3219,-3.3221,-3.3272,-3.3273,-3.3274,-3.3275,0,-3.325,-3.3239,-3.325,-3.3258,-3.3267,-3.3272,-3.3274,-3.3284,-3.3256,-3.3267,-3.3282,-3.3289,-3.3303,-3.3316,-3.3322,-3.3318,-3.3292,-3.3289,-3.3297,-3.3306,-3.3312,-3.3309,-3.3175,-3.3286,-3.3285,-3.3284,-3.3284,-3.3283,-3.3331,-3.335,-3.3346,-3.3359,-3.3358,-3.3361,-3.3377,-3.3366,-3.3378,-3.3386,-3.337,-3.3389,-3.3386,-3.3391,-3.339,-3.3405,-3.3386,-3.3399,-3.3402,-3.3406,-3.3411,-3.331,-3.3406,-3.3406,-3.3405,-3.3405,-3.3405,0,-3.3437,-3.3431,-3.3444,-3.3448,-3.3458,-3.3432,-3.3433,-3.3443,-3.3461,-3.346,-3.3468,-3.3486,-3.3498,-3.3485,-3.3494,-3.3509,-3.3497,-3.3512,-3.3511,-3.351,-3.3428,-3.3419,-3.3521,-3.3521,-3.3521,-3.3521,-3.3521,-3.3521,-3.3493,-3.3524,-3.3512,-3.3542,-3.3536,-3.3555,-3.3557,-3.3559,-3.3558,-3.3579,-3.3588,-3.3579,-3.3574,-3.3582,-3.3592,-3.3588,-3.3593,-3.3612,-3.3604,-3.3528,-3.3516,-3.3505,-3.3497,-3.3614,-3.3614,-3.3685,-3.3686,-3.3686]}]]